Regional Weather Roundup
Issued by NWS

Home | Current Version | Previous Version | Text Only | Print | Product List | Glossary Off
Versions: 1 2 3 4 5 6 7 8 9 10 11 12 13 14 15 16 17 18 19 20 21 22 23 24 25 26 27 28 29 30 31 32 33 34 35 36 37 38 39 40 41 42 43 44 45 46 47 48 49 50

000
ASUS45 KABQ 070410
RWRNM
WEATHER ROUNDUP FOR NEW MEXICO
NATIONAL WEATHER SERVICE ALBUQUERQUE NM
1000 PM MDT WED MAY 06 2015

NOTE: "FAIR" MEANS FEW OR NO CLOUDS BELOW 12,000 FEET AGL WITH NO
       SIGNIFICANT WEATHER OR OBSTRUCTIONS TO VISION.

      THIS PRODUCT IS RELEASED AS TWO VERSIONS.  ONE VERSION NEAR
      THE TOP OF THE HOUR CONTAINING PRELIMINARY DATA FROM ALBUQUERQUE
      AND OTHER STATIONS.  A FINAL VERSION WITH ADDITIONAL DATA IS
      ISSUED ABOUT 10 MINUTES AFTER THE HOUR.

NMZ501-503-504-510>518-070500-
NORTHWEST PLATEAU/NORTHCENTRAL MOUNTAINS

CITY           SKY/WX    TMP DP  RH WIND       PRES   REMARKS
FARMINGTON     CLOUDY    53  45  74 E9        29.87R
LOS ALAMOS     MOCLDY    49  37  61 CALM      29.99R
SANTA FE       MOCLDY    47  40  76 N7        29.93R
TAOS           CLOUDY    45  36  70 E6        29.98F
ANGEL FIRE     FAIR      41  36  83 CALM      30.03S

$$
NMZ402-403-502-505>509-070500-
WESTCENTRAL MOUNTAINS/SOUTHWEST MOUNTAINS

CITY           SKY/WX    TMP DP  RH WIND       PRES   REMARKS
GALLUP         CLEAR     50  32  50 SW6       29.93R
GRANTS         PTCLDY    44  39  83 NW3       29.97R
SILVER CITY      N/A     59  10  14 W9        29.93R

$$
NMZ407-409-411-412-070500-
SOUTHERN DESERTS

CITY           SKY/WX    TMP DP  RH WIND       PRES   REMARKS
LORDSBURG      FAIR      64  14  14 SW8       29.86R
DEMING         CLEAR     66  18  15 W10       29.85R
LAS CRUCES     CLEAR     66  13  12 W9        29.86R
HOLLOMAN AFB   PTCLDY    67  29  24 CALM      29.82R
ALAMOGORDO     PTCLDY    64  28  25 S3        29.84R
T OR C         CLEAR     64  15  15 W6        29.85R

$$
NMZ519>523-070500-
CENTRAL VALLEYS/CENTRAL HIGHLANDS

CITY           SKY/WX    TMP DP  RH WIND       PRES   REMARKS
ALBUQUERQUE    MOCLDY    60  40  47 E6        29.89R
DOUBLE EAGLE   MOCLDY    55  37  50 NE7       29.91R
MORIARTY ARPT  FAIR      52  39  61 E7        29.93R
CLINES CORNERS PTCLDY    49  36  61 NW10      29.95R
BELEN          MOCLDY    56  38  49 NE5       29.89R
SOCORRO        CLOUDY    63  39  41 N5        29.87R

$$
NMZ524>526-539-540-070500-
SOUTHCENTRAL MOUNTAINS

CITY           SKY/WX    TMP DP  RH WIND       PRES   REMARKS
RUIDOSO        CLEAR     54  23  30 SE7       29.99R

$$
NMZ527>531-070500-
NORTHEAST HIGHLANDS/NORTHEAST PLAINS

CITY           SKY/WX    TMP DP  RH WIND       PRES   REMARKS
LAS VEGAS      PTCLDY    49  36  61 W6        29.92R
RATON          PTCLDY    54  35  48 W10       29.89R
CLAYTON        CLEAR     61  42  49 W10       29.81R

$$
NMZ532>537-070500-
EASTCENTRAL PLAINS

CITY           SKY/WX    TMP DP  RH WIND       PRES   REMARKS
TUCUMCARI      CLEAR     61  45  55 W5        29.77R
CANNON AFB     CLEAR     58  46  63 S9        29.82R
CLOVIS AIRPORT CLEAR     57  45  62 S12       29.82S

$$
NMZ028-029-538-070500-
SOUTHEAST PLAINS

CITY           SKY/WX    TMP DP  RH WIND       PRES   REMARKS
ROSWELL        CLEAR     63  41  44 W8        29.79R
ARTESIA        CLEAR     63  39  42 W7        29.80R
CARLSBAD       CLEAR     68  44  42 SW6       29.77R
HOBBS          CLEAR     68  59  73 S14G21    29.85R


$$


USA.gov is the U.S. government's official web portal to all federal, state and local government web resources and services.